Content
SEND FEEDBACK

Daily
Averages
Monthly
Summary
United States of America

GREENSBURG, INDIANA


Home > North America > United States > Indiana
Elevation: 289 meters     Latitude: 39 20N     Longitude: 085 28W

WEATHER
 
SELECT A DAY
Number of Records: 176,142;   Date Range: 10/15/98 - 10/23/14
 
SHARE

PRINT THIS DATA

[ ← Previous Day ]
WEATHER ALMANAC - 13 FEBRUARY, 2013
[ Next Day → ]
[ °F ]   °C
Weather ElementAverageHighLow
Temperature1.2 °C6.1 °C (4:53 pm)-1.7 °C (3:53 am)
Dewpoint-3.3 °C-1.1 °C (9:53 pm)-4.4 °C (6:53 am)
Humidity73 %89 % (3:53 am)49 % (4:53 pm)
Barometer1010.5 hPa1012.5 hPa (1:53 am)1008.5 hPa (3:53 pm)
Wind Speed10.1 km/h16.7 km/h (7:53 pm)
Weather ElementAverage
Visibility13.8 km
Wind DirectionSSE (169.6 °)

Weather ElementTotal
Precipitation---
Heating Degree Days16.2 (Base 18.3)
Averaged from 23 records on 13 February, 2013
WEATHER CONDITIONS BREAKOUT
WIND DIRECTION BREAKOUT
WEATHER BY HOUR - 13 FEBRUARY, 2013
[ °F ]   °C
Local TimeTemperatureDewpointHumidityBarometerVisibilityWind DirectionWind SpeedGust SpeedPrecipitationEventsConditions
1:53 AM-0.6 °C-2.8 °C85 %1012.5 hPa9.7 kmNNE (20°)9.3 km/hOvercast
2:53 AM-0.6 °C-3.3 °C82 %1012.2 hPa9.7 kmNNE (20°)5.6 km/hHaze
3:53 AM-1.7 °C-3.3 °C89 %1011.9 hPa8 kmNorth (350°)11.1 km/hScattered Clouds
4:53 AM-1.1 °C-3.3 °C85 %1010.8 hPa9.7 kmNorth (10°)11.1 km/hMostly Cloudy
5:53 AM-1.1 °C-3.9 °C82 %1010.2 hPa12.9 kmNNE (30°)11.1 km/hMostly Cloudy
6:53 AM-1.1 °C-4.4 °C79 %1009.5 hPa14.5 kmNNE (20°)13 km/hOvercast
7:53 AM-1.1 °C-4.4 °C79 %1010.2 hPa14.5 kmNorth (360°)9.3 km/hOvercast
8:53 AM-1.1 °C-4.4 °C79 %1010.8 hPa12.9 kmNNW (340°)7.4 km/hOvercast
9:53 AM-0.6 °C-4.4 °C76 %1011.2 hPa12.9 kmCalmOvercast
10:53 AM-0.6 °C-3.9 °C79 %1010.5 hPa12.9 kmNorth (350°)13 km/hOvercast
11:53 AM0 °C-4.4 °C73 %1010.8 hPa14.5 kmCalmOvercast
12:53 PM1.1 °C-3.9 °C70 %1009.8 hPa16.1 kmCalmMostly Cloudy
1:53 PM2.2 °C-3.9 °C64 %1009.1 hPa16.1 kmWNW (290°)7.4 km/hClear
2:53 PM4.4 °C-3.9 °C55 %1008.8 hPa16.1 kmWNW (290°)11.1 km/hClear
3:53 PM5.6 °C-3.3 °C53 %1008.5 hPa16.1 kmWest (260°)13 km/hClear
4:53 PM6.1 °C-3.9 °C49 %1009.1 hPa16.1 kmWSW (240°)9.3 km/hClear
5:53 PM5 °C-2.8 °C57 %1009.5 hPa16.1 kmSouth (190°)11.1 km/hClear
6:53 PM3.9 °C-3.3 °C60 %1009.8 hPa16.1 kmSouth (190°)11.1 km/hClear
7:53 PM2.8 °C-2.2 °C70 %1010.5 hPa16.1 kmSouth (180°)16.7 km/hScattered Clouds
8:53 PM1.7 °C-1.7 °C78 %1010.8 hPa12.9 kmSouth (190°)13 km/hClear
9:53 PM2.2 °C-1.1 °C79 %1011.2 hPa12.9 kmSouth (190°)16.7 km/hOvercast
10:53 PM1.7 °C-2.2 °C76 %1011.2 hPa16.1 kmSouth (190°)14.8 km/hPartly Cloudy
11:53 PM1.1 °C-2.2 °C79 %1011.2 hPa14.5 kmSouth (190°)16.7 km/hClear
Hourly data recorded from KGEZ, located 0 kilometers away from Greensburg, Indiana







STORIES FROM OUR PARTNERS